FW2452 Weather Reports


time (UTC)temp
F
wind
direction
speed
knots
gust
knots
rain 1hr
in
rain 24hr
in
rain mn
in
humidity
%
barometer
mb
20260508003029 73 288 3.5 12.2 0.00 0.00 0.00 25 1011.2
20260508001542 73 299 2.6 9.6 0.00 0.00 0.00 26 1011.2
20260508000055 72 302 3.5 7.8 0.00 0.00 0.00 28 1011.2
20260507234540 73 299 2.6 9.6 0.00 0.00 0.00 28 1011.3
20260507233039 73 292 2.6 10.4 0.00 0.00 0.00 27 1011.3
20260507231533 75 296 3.5 9.6 0.00 0.00 0.00 27 1011.3
20260507224534 75 282 0.9 7.8 0.00 0.00 0.00 29 1011.6
20260507223035 75 308 4.3 10.4 0.00 0.00 0.00 31 1011.8
20260507220036 75 309 4.3 14.8 0.00 0.00 0.00 32 1012.0
20260507214534 75 339 4.3 13.9 0.00 0.00 0.00 32 1012.1
20260507213035 75 312 3.5 7.0 0.00 0.00 0.00 33 1012.2
20260507211545 76 310 3.5 9.6 0.00 0.00 0.00 33 1012.4
20260507210036 75 311 2.6 11.3 0.00 0.00 0.00 34 1012.5
20260507204532 75 312 3.5 9.6 0.00 0.00 0.00 34 1012.7
20260507203038 74 322 2.6 7.8 0.00 0.00 0.00 35 1012.9
20260507201538 73 330 3.5 8.7 0.00 0.00 0.00 35 1012.9
20260507200038 73 320 3.5 9.6 0.00 0.00 0.00 35 1013.0
20260507194536 72 327 3.5 10.4 0.00 0.00 0.00 37 1013.1
20260507193040 71 329 3.5 12.2 0.00 0.00 0.00 38 1013.4
20260507191535 70 345 3.5 8.7 0.00 0.00 0.00 40 1013.6
20260507184645 70 24 3.5 9.6 0.00 0.00 0.00 43 1014.0
20260507183046 70 42 2.6 7.0 0.00 0.00 0.00 44 1014.1
20260507181537 69 16 1.7 6.1 0.00 0.00 0.00 46 1014.2
20260507180030 68 347 2.6 7.0 0.00 0.00 0.00 47 1014.3
20260507174606 67 350 1.7 7.0 0.00 0.00 0.00 49 1014.6
20260507173104 66 348 2.6 7.8 0.00 0.00 0.00 50 1014.8
20260507164551 64 24 1.7 7.8 0.00 0.00 0.00 56 1014.9
20260507163032 64 130 0.0 3.5 0.00 0.00 0.00 59 1014.9
20260507161534 62 115 0.9 5.2 0.00 0.00 0.00 61 1015.1
20260507160038 61 303 0.9 4.3 0.00 0.00 0.00 63 1015.3
20260507154534 60 115 0.9 9.6 0.00 0.00 0.00 68 1015.7
20260507151538 58 100 1.7 3.5 0.00 0.00 0.00 72 1015.8
20260507150052 57 113 0.9 3.5 0.00 0.00 0.00 76 1015.8
20260507143103 54 122 1.7 4.3 0.00 0.00 0.00 80 1015.7
20260507133135 52 239 0.0 5.2 0.00 0.00 0.00 80 1015.2
20260507131610 52 303 2.6 7.8 0.00 0.00 0.00 82 1015.1
20260507130036 51 318 2.6 7.8 0.00 0.00 0.00 84 1015.0
20260507124531 50 331 2.6 8.7 0.00 0.00 0.00 85 1015.1
20260507123036 50 305 2.6 6.1 0.00 0.00 0.00 85 1015.1
20260507121538 50 294 1.7 3.5 0.00 0.00 0.00 85 1015.0
20260507120139 50 273 0.9 2.6 0.00 0.00 0.00 85 1014.9
20260507114540 50 290 0.9 2.6 0.00 0.00 0.00 84 1014.8
20260507111535 50 292 0.9 3.5 0.00 0.00 0.00 82 1014.5
20260507110032 51 293 0.9 2.6 0.00 0.00 0.00 81 1014.4
20260507104551 52 294 0.9 4.3 0.00 0.00 0.00 80 1014.4
20260507103106 53 285 1.7 3.5 0.00 0.00 0.00 79 1014.4
20260507101532 53 269 0.9 3.5 0.00 0.00 0.00 77 1014.3
20260507100104 54 291 0.9 3.5 0.00 0.00 0.00 76 1014.2
20260507094645 54 303 0.9 4.3 0.00 0.00 0.00 73 1014.3
20260507091609 59 241 0.9 7.0 0.00 0.00 0.00 65 1014.2
20260507080035 57 24 0.0 3.5 0.00 0.00 0.00 75 1014.3
20260507074609 57 325 0.0 3.5 0.00 0.00 0.00 76 1014.3
20260507073031 57 4 0.9 4.3 0.00 0.00 0.00 76 1014.2
20260507070033 57 357 1.7 3.5 0.00 0.00 0.00 75 1014.3
20260507063035 58 252 0.0 2.6 0.00 0.00 0.00 73 1014.4
20260507061531 57 262 0.9 4.3 0.00 0.00 0.00 74 1014.5
20260507054532 58 328 0.0 2.6 0.00 0.00 0.00 69 1014.8
20260507053031 59 352 0.9 4.3 0.00 0.00 0.00 67 1014.9
20260507051535 59 354 0.9 5.2 0.00 0.00 0.00 63 1014.9
20260507050038 60 343 0.0 3.5 0.00 0.00 0.00 58 1014.9
20260507044529 63 3 0.0 2.6 0.00 0.00 0.00 55 1014.9
20260507043146 64 298 0.9 7.0 0.00 0.00 0.00 53 1014.7
20260507041633 64 247 1.7 6.1 0.00 0.00 0.00 51 1014.5
20260507040042 65 227 2.6 9.6 0.00 0.00 0.00 50 1014.3
20260507033033 66 238 2.6 7.8 0.00 0.00 0.00 49 1014.1
20260507014530 68 275 2.6 8.7 0.00 0.00 0.00 49 1013.4
20260507013037 68 273 3.5 10.4 0.00 0.00 0.00 48 1013.4
20260507011532 69 289 1.7 7.8 0.00 0.00 0.00 47 1013.4
20260507010033 69 283 3.5 8.7 0.00 0.00 0.00 47 1013.4
20260507004552 70 284 2.6 8.7 0.00 0.00 0.00 46 1013.3